Location: Villingen
(48.0639°N, 8.4609°E)
Time: 20:56:18
(UTC+01:00)

ISS - Visible Passes

Search period start: 18 January 2018 00:00
Search period end: 28 January 2018 00:00
Orbit: 402 x 407 km, 51.6° (Epoch: 18 January)

Date Brightness Start Highest point End Pass type
(mag) Time Alt. Az. Time Alt. Az. Time Alt. Az.
25 Jan -1.1 19:45:33 10° SW 19:46:12 15° SSW 19:46:12 15° SSW visible
26 Jan -2.3 18:53:45 10° SSW 18:56:18 23° SE 18:56:18 23° SE visible
27 Jan -1.6 18:02:28 10° SSE 18:04:14 14° SE 18:05:59 10° ESE visible
27 Jan -2.3 19:36:58 10° WSW 19:38:58 34° SW 19:38:58 34° SW visible
